Weather History for KCLL - October, 2012

Change the Weather History Date:

Sunday, October 21, 2012

  Actual Average Record
Temperature  
Mean Temperature 82 °F 69 °F  
Max Temperature 90 °F 80 °F 95 °F (1934)
Min Temperature 73 °F 59 °F 35 °F (1976)
Degree Days  
Heating Degree Days 0 1  
Month to date heating degree days 12 11  
Since 1 July heating degree days 12 13  
Cooling Degree Days 17 6  
Month to date cooling degree days 173 167  
Year to date cooling degree days 3432 2963  
Growing Degree Days 31 (Base 50)    
Moisture  
Dew Point 71 °F    
Average Humidity 69    
Maximum Humidity 87    
Minimum Humidity 50    
Precipitation  
Precipitation 0.00 in 0.18 in 1.86 in (1985)
Month to date precipitation 1.81 3.37  
Year to date precipitation 36.56 32.07  
Sea Level Pressure  
Sea Level Pressure 29.90 in    
Wind  
Wind Speed 11 mph (South)    
Max Wind Speed 22 mph    
Max Gust Speed 28 mph    
Visibility 10 miles    
Events      
T = Trace of Precipitation, MM = Missing Value Source: NWS Daily Summary

Daily Weather History Graph

Daily Weather History Graph

Search for Another Location

Airport or City:

Trip Planner

Search our weather history database for the weather conditions in past years. The results will help you decide how hot, cold, wet, or windy it might be!

Date:

Astronomy

Oct. 21, 2012 Rise Set
Actual Time 7:32 AM CDT 6:47 PM CDT
Civil Twilight 7:07 AM CDT 7:11 PM CDT
Nautical Twilight 6:39 AM CDT 7:39 PM CDT
Astronomical Twilight 6:11 AM CDT 8:07 PM CDT
Moon 1:46 PM CDT (10/21) No Moon Set
Length of Visible Light 12h 03m
Length of Day
11h 14m
Waxing Crescent, 45% of the Moon is Illuminated
Oct 21
Waxing Crescent
Oct 21
First Quarter
Oct 29
Full
Nov 6
Last Quarter
Nov 13
New

Hourly Weather History & Observations

Time (CDT) Temp. Heat Index Dew Point Humidity Pressure Visibility Wind Dir Wind Speed Gust Speed Precip Events Conditions
12:14 AM 75.2 °F - 69.8 °F 83% 29.87 in 10.0 mi South 12.7 mph 19.6 mph N/A   Mostly Cloudy
12:48 AM 75.2 °F - 69.8 °F 83% 29.87 in 10.0 mi South 13.8 mph - N/A   Overcast
12:53 AM 75.9 °F - 70.0 °F 82% 29.86 in 10.0 mi South 12.7 mph - N/A   Overcast
1:53 AM 75.0 °F - 70.0 °F 84% 29.86 in 10.0 mi South 10.4 mph - N/A   Overcast
2:13 AM 75.2 °F - 71.6 °F 89% 29.87 in 10.0 mi South 10.4 mph - N/A   Overcast
2:53 AM 75.0 °F - 71.1 °F 87% 29.86 in 10.0 mi South 12.7 mph - N/A   Overcast
3:04 AM 75.2 °F - 71.6 °F 89% 29.87 in 10.0 mi South 11.5 mph 20.7 mph N/A   Overcast
3:51 AM 75.2 °F - 71.6 °F 89% 29.87 in 10.0 mi South 11.5 mph - N/A   Overcast
3:53 AM 75.0 °F - 71.1 °F 87% 29.86 in 10.0 mi South 11.5 mph - N/A   Overcast
4:26 AM 75.2 °F - 71.6 °F 89% 29.87 in 10.0 mi South 11.5 mph - N/A   Overcast
4:42 AM 75.2 °F - 71.6 °F 89% 29.87 in 10.0 mi South 10.4 mph - N/A   Overcast
4:53 AM 75.0 °F - 71.1 °F 87% 29.87 in 10.0 mi South 11.5 mph - N/A   Overcast
5:53 AM 75.0 °F - 72.0 °F 90% 29.89 in 10.0 mi South 10.4 mph - N/A   Overcast
6:53 AM 75.0 °F - 72.0 °F 90% 29.91 in 10.0 mi South 8.1 mph - N/A   Overcast
7:53 AM 75.0 °F - 72.0 °F 90% 29.91 in 9.0 mi SSE 8.1 mph - N/A   Overcast
8:12 AM 75.2 °F - 71.6 °F 89% 29.93 in 9.0 mi South 8.1 mph - N/A   Overcast
8:53 AM 75.0 °F - 72.0 °F 90% 29.94 in 10.0 mi SSE 8.1 mph - N/A   Overcast
9:02 AM 75.2 °F - 71.6 °F 89% 29.95 in 10.0 mi South 12.7 mph - N/A   Overcast
9:53 AM 77.0 °F - 72.0 °F 84% 29.95 in 10.0 mi South 10.4 mph - N/A   Overcast
10:00 AM 77.0 °F - 71.6 °F 83% 29.96 in 10.0 mi South 11.5 mph - N/A   Overcast
10:49 AM 80.6 °F 85.4 °F 73.4 °F 79% 29.97 in 10.0 mi South 10.4 mph 20.7 mph N/A   Overcast
10:53 AM 80.1 °F 84.2 °F 73.0 °F 79% 29.96 in 10.0 mi South 11.5 mph 19.6 mph N/A   Overcast
11:53 AM 82.0 °F 86.7 °F 72.0 °F 71% 29.95 in 10.0 mi South 12.7 mph 20.7 mph N/A   Mostly Cloudy
12:53 PM 84.9 °F 90.1 °F 71.1 °F 63% 29.93 in 10.0 mi South 12.7 mph - N/A   Scattered Clouds
1:53 PM 87.1 °F 92.0 °F 70.0 °F 57% 29.90 in 10.0 mi South 11.5 mph - N/A   Scattered Clouds
2:53 PM 88.0 °F 92.1 °F 69.1 °F 53% 29.87 in 10.0 mi South 11.5 mph 21.9 mph N/A   Mostly Cloudy
3:53 PM 89.1 °F 93.7 °F 69.1 °F 52% 29.86 in 10.0 mi SSE 16.1 mph 24.2 mph N/A   Scattered Clouds
4:53 PM 89.1 °F 92.9 °F 68.0 °F 50% 29.86 in 10.0 mi South 17.3 mph 21.9 mph N/A   Partly Cloudy
5:53 PM 86.0 °F 90.1 °F 69.1 °F 57% 29.87 in 10.0 mi SSE 16.1 mph 21.9 mph N/A   Clear
6:53 PM 84.0 °F 87.8 °F 69.1 °F 61% 29.88 in 10.0 mi South 13.8 mph - N/A   Clear
7:53 PM 80.1 °F 82.9 °F 69.1 °F 69% 29.91 in 10.0 mi SSE 6.9 mph - N/A   Partly Cloudy
8:53 PM 79.0 °F - 69.1 °F 72% 29.93 in 10.0 mi SSE 12.7 mph - N/A   Scattered Clouds
9:53 PM 75.9 °F - 69.1 °F 79% 29.95 in 10.0 mi SSE 10.4 mph - N/A   Clear
10:53 PM 73.9 °F - 68.0 °F 82% 29.96 in 10.0 mi SSE 8.1 mph - N/A   Clear
11:53 PM 73.0 °F - 68.0 °F 84% 29.94 in 10.0 mi SSE 9.2 mph - N/A   Partly Cloudy